Starlink 31180

operational
NORAD ID: 58732 Int'l Des: 2024-005 Owner: SPXS Country: US Constellation: starlink
LEOCIRCULAR

Starlink 31180について

説明を読み込み中...

リアルタイム位置

3D地球を読み込み中...

次回通過

高度履歴

Altitude vs Time

uPlot chart will show altitude changes over time

軌道要素

1 58732U 24005E 25258.26445255 .00003582 00000-0 28036-3 0 9991
2 58732 42.9989 94.7979 0001128 270.2108 89.8605 15.02504024 94029
Epoch: Sep 15, 2025 • Age: 6 hours

現在のステータス

高度 558.5 km
速度 7.59 km/s
衛星直下点 15.34°N, 76.84°W
打ち上げ日 Jan 7, 2024
運用期間 1.6 years
タイプ internet

技術仕様

分類 Payload
質量 730.00 kg
乾燥質量 700.00 kg
総質量 730.00 kg
長さ 0.30 m
直径 4.10 m
スパン 29.00 m
形状 Box + pan
製造者 SPXS
バスタイプ Starlink V2M
フェーズステータス In Orbit
所有者/国 SPXS/US

大規模コンステレーション

Loading constellations...